FW9077 Weather Reports


time (UTC)temp
C
wind
direction
speed
KPH
gust
KPH
rain 1hr
cm
rain 24hr
cm
rain mn
cm
humidity
%
barometer
mb
20260507170127 15 68 8.0 9.7 0.00 0.03 0.03 41 1005.8
20260507165622 15 4 3.2 3.2 0.00 0.03 0.03 42 1006.0
20260507165119 15 88 8.0 11.3 0.00 0.03 0.03 41 1006.0
20260507164615 15 70 6.4 8.0 0.00 0.03 0.03 43 1006.1
20260507164112 15 66 3.2 4.8 0.00 0.03 0.03 44 1006.2
20260507163609 15 92 3.2 3.2 0.00 0.03 0.03 45 1006.0
20260507163107 15 114 4.8 8.0 0.00 0.03 0.03 44 1006.2
20260507162602 15 88 4.8 8.0 0.00 0.03 0.03 45 1006.2
20260507162059 15 127 4.8 9.7 0.00 0.03 0.03 44 1006.6
20260507161555 15 87 4.8 4.8 0.00 0.03 0.03 44 1006.0
20260507161052 15 181 4.8 8.0 0.00 0.03 0.03 44 1006.3
20260507160548 15 63 3.2 3.2 0.00 0.03 0.03 45 1006.4
20260507160045 14 254 8.0 11.3 0.00 0.03 0.03 48 1006.2
20260507155540 14 100 6.4 8.0 0.00 0.03 0.03 50 1006.7
20260507155037 13 147 3.2 3.2 0.00 0.03 0.03 52 1006.7
20260507154534 13 335 4.8 8.0 0.00 0.03 0.03 56 1006.7
20260507154031 15 145 6.4 8.0 0.00 0.03 0.03 58 1006.4
20260507153528 13 107 1.6 1.6 0.00 0.03 0.03 61 1006.3
20260507153024 13 222 4.8 8.0 0.00 0.03 0.03 62 1006.7
20260507152520 13 129 3.2 3.2 0.00 0.03 0.03 63 1006.8
20260507152017 13 106 1.6 3.2 0.00 0.03 0.03 63 1006.7
20260507151513 13 93 4.8 4.8 0.00 0.03 0.03 61 1006.6
20260507151010 14 74 1.6 1.6 0.00 0.03 0.03 60 1006.9
20260507150507 13 0 3.2 4.8 0.00 0.03 0.03 63 1006.9
20260507150004 12 107 3.2 3.2 0.00 0.03 0.03 65 1007.2
20260507145458 12 281 3.2 3.2 0.00 0.03 0.03 64 1006.9
20260507144956 12 65 3.2 4.8 0.00 0.03 0.03 61 1007.2
20260507144453 13 107 4.8 4.8 0.00 0.03 0.03 61 1007.0
20260507143950 13 128 1.6 1.6 0.00 0.03 0.03 60 1007.0
20260507143448 13 87 4.8 4.8 0.00 0.03 0.03 62 1006.9
20260507142944 13 104 3.2 3.2 0.00 0.03 0.03 59 1007.0
20260507142440 13 104 1.6 1.6 0.00 0.03 0.03 62 1007.0
20260507141937 13 101 1.6 1.6 0.00 0.03 0.03 61 1007.1
20260507141433 13 103 4.8 4.8 0.00 0.03 0.03 59 1007.0
20260507140930 13 100 1.6 3.2 0.00 0.03 0.03 57 1007.1
20260507140426 13 59 4.8 8.0 0.00 0.03 0.03 61 1007.2
20260507135924 13 50 3.2 3.2 0.00 0.03 0.03 61 1006.9
20260507135421 13 80 3.2 4.8 0.00 0.03 0.03 62 1007.0
20260507134918 12 107 4.8 4.8 0.00 0.03 0.03 61 1006.8
20260507134415 12 290 4.8 4.8 0.00 0.03 0.03 62 1007.0
20260507133910 12 116 0.0 0.0 0.00 0.03 0.03 64 1007.0
20260507133406 12 79 1.6 3.2 0.00 0.03 0.03 63 1007.1
20260507132905 12 212 4.8 4.8 0.00 0.03 0.03 66 1007.0
20260507132401 12 121 1.6 1.6 0.00 0.03 0.03 65 1007.2
20260507131858 12 127 3.2 3.2 0.00 0.03 0.03 64 1007.5
20260507131355 12 138 3.2 3.2 0.00 0.03 0.03 65 1007.3
20260507130852 11 134 3.2 3.2 0.00 0.03 0.03 70 1007.4
20260507130349 11 101 3.2 4.8 0.00 0.03 0.03 69 1007.5
20260507125848 11 84 6.4 9.7 0.00 0.03 0.03 70 1007.2
20260507125345 11 107 3.2 3.2 0.00 0.03 0.03 71 1007.4
20260507124843 11 75 4.8 4.8 0.00 0.03 0.03 71 1007.3
20260507124338 11 100 1.6 1.6 0.00 0.03 0.03 70 1007.0
20260507123837 11 129 3.2 4.8 0.00 0.03 0.03 71 1007.4
20260507123334 10 283 1.6 3.2 0.00 0.03 0.03 72 1007.1
20260507122830 10 111 3.2 4.8 0.00 0.03 0.03 72 1007.7
20260507122325 10 350 4.8 8.0 0.00 0.03 0.03 76 1007.5
20260507121823 10 112 6.4 8.0 0.00 0.03 0.03 77 1007.5
20260507121318 10 75 3.2 3.2 0.00 0.03 0.03 80 1007.5
20260507120814 9 28 4.8 4.8 0.00 0.03 0.03 82 1007.5
20260507120311 8 107 1.6 1.6 0.00 0.03 0.03 86 1007.5
20260507115807 8 97 4.8 4.8 0.00 0.03 0.03 87 1007.5
20260507115306 8 110 1.6 1.6 0.00 0.03 0.03 86 1007.2
20260507114759 8 99 1.6 3.2 0.00 0.03 0.03 86 1007.2
20260507114256 8 102 3.2 3.2 0.00 0.03 0.03 85 1007.4
20260507113753 8 111 3.2 3.2 0.00 0.03 0.03 85 1007.1
20260507113244 8 138 3.2 3.2 0.00 0.03 0.03 85 1007.2
20260507112742 8 87 4.8 4.8 0.00 0.03 0.03 85 1007.3
20260507112238 8 92 1.6 1.6 0.00 0.03 0.03 86 1007.1
20260507111737 8 81 4.8 4.8 0.00 0.03 0.03 87 1007.2
20260507111233 8 107 3.2 3.2 0.00 0.03 0.03 87 1007.2
20260507110729 8 104 1.6 1.6 0.00 0.03 0.03 88 1007.3
20260507110226 8 109 1.6 3.2 0.00 0.03 0.03 87 1007.0
20260507105722 8 20 3.2 3.2 0.00 0.03 0.03 87 1007.2
20260507105218 8 85 3.2 3.2 0.00 0.03 0.03 88 1007.2
20260507104716 8 110 3.2 3.2 0.00 0.03 0.03 88 1006.8
20260507104212 8 109 3.2 3.2 0.00 0.03 0.03 88 1006.6
20260507103708 8 77 3.2 3.2 0.00 0.03 0.03 88 1006.6
20260507103205 8 99 3.2 3.2 0.00 0.03 0.03 88 1006.7
20260507102701 7 108 3.2 3.2 0.00 0.03 0.03 88 1006.7
20260507102158 8 110 3.2 3.2 0.00 0.03 0.03 89 1006.5
20260507101654 8 108 1.6 1.6 0.00 0.03 0.03 89 1006.7
20260507101149 8 101 1.6 1.6 0.00 0.03 0.03 90 1006.9
20260507100647 8 106 0.0 1.6 0.00 0.03 0.03 90 1006.7
20260507100145 8 102 3.2 3.2 0.00 0.03 0.03 90 1006.4
20260507095643 8 91 3.2 3.2 0.00 0.03 0.03 90 1006.5
20260507095139 8 94 1.6 1.6 0.00 0.03 0.03 90 1006.7
20260507094636 8 108 3.2 3.2 0.00 0.03 0.03 90 1006.8
20260507094132 8 106 1.6 1.6 0.00 0.03 0.03 90 1007.0
20260507093630 8 107 1.6 1.6 0.00 0.03 0.03 91 1006.9
20260507093129 8 61 1.6 3.2 0.00 0.03 0.03 90 1007.0
20260507092625 8 109 1.6 3.2 0.00 0.03 0.03 91 1006.8
20260507092121 8 110 3.2 3.2 0.00 0.03 0.03 91 1006.8
20260507091618 7 101 3.2 3.2 0.00 0.03 0.03 92 1006.7
20260507091114 7 85 1.6 1.6 0.00 0.03 0.03 93 1007.0
20260507090610 7 47 3.2 3.2 0.00 0.03 0.03 94 1007.0
20260507090107 7 89 4.8 4.8 0.00 0.03 0.03 95 1006.4
20260507085604 7 127 1.6 1.6 0.00 0.03 0.03 95 1006.5
20260507085101 7 92 1.6 3.2 0.00 0.03 0.03 95 1006.6
20260507084558 7 79 3.2 3.2 0.00 0.03 0.03 95 1007.0
20260507084055 7 106 1.6 1.6 0.00 0.03 0.03 96 1006.7
20260507083551 7 97 1.6 1.6 0.00 0.03 0.03 96 1006.6
20260507083048 7 107 1.6 1.6 0.00 0.03 0.03 95 1006.4
20260507082544 7 108 0.0 0.0 0.00 0.03 0.03 94 1006.5
20260507082041 8 339 3.2 3.2 0.18 0.03 0.03 94 1006.5
20260507081537 8 105 0.0 0.0 0.18 0.03 0.03 93 1006.5
20260507081034 8 108 0.0 0.0 0.00 0.00 0.00 92 1006.4
20260507080529 8 96 1.6 1.6 0.00 0.00 0.00 91 1006.1
20260507080026 8 94 1.6 1.6 0.00 0.00 0.00 90 1006.4
20260507075522 8 99 1.6 1.6 0.00 0.00 0.00 88 1006.6
20260507075018 9 100 1.6 1.6 0.00 0.00 0.00 89 1006.6
20260507074515 9 109 3.2 3.2 0.00 0.00 0.00 89 1006.8
20260507074014 9 107 0.0 1.6 0.00 0.00 0.00 90 1006.6
20260507073509 9 100 4.8 4.8 0.00 0.00 0.00 91 1006.4
20260507073006 9 74 3.2 3.2 0.00 0.00 0.00 92 1006.4
20260507072504 9 97 1.6 1.6 0.00 0.00 0.00 92 1006.2
20260507072001 9 90 3.2 3.2 0.00 0.00 0.00 93 1006.2
20260507071458 9 93 3.2 3.2 0.00 0.00 0.00 92 1006.0
20260507070954 9 89 3.2 3.2 0.00 0.00 0.00 93 1006.0
20260507070451 9 94 1.6 1.6 0.00 0.00 0.00 93 1006.4
20260507065948 9 83 3.2 3.2 0.00 0.00 0.00 93 1006.3
20260507065445 9 83 3.2 3.2 0.00 0.00 0.00 93 1006.1
20260507064942 9 97 0.0 1.6 0.00 0.00 0.00 92 1006.0
20260507064440 9 100 1.6 1.6 0.00 0.00 0.00 92 1006.0
20260507063938 9 106 3.2 3.2 0.00 0.00 0.00 92 1005.8
20260507063434 9 103 1.6 1.6 0.00 0.00 0.00 92 1006.3
20260507062932 9 111 0.0 0.0 0.00 0.00 0.00 92 1005.7
20260507062429 9 104 0.0 0.0 0.00 0.00 0.00 92 1005.9
20260507061926 9 102 0.0 1.6 0.00 0.00 0.00 91 1005.9
20260507061424 9 67 1.6 3.2 0.00 0.00 0.00 92 1005.8
20260507060922 9 102 0.0 1.6 0.00 0.00 0.00 91 1005.9
20260507060419 9 107 0.0 1.6 0.00 0.00 0.00 90 1006.0
20260507055915 9 93 1.6 1.6 0.00 0.00 0.00 90 1006.1
20260507055411 9 100 1.6 1.6 0.00 0.00 0.00 91 1006.0
20260507054908 9 107 1.6 1.6 0.00 0.00 0.00 91 1006.2
20260507054404 9 107 1.6 3.2 0.00 0.00 0.00 92 1006.2
20260507053901 9 259 1.6 3.2 0.00 0.00 0.00 93 1006.4
20260507053359 9 108 1.6 1.6 0.00 0.00 0.00 93 1006.6
20260507052858 10 98 3.2 3.2 0.00 0.00 0.00 95 1006.4
20260507052354 10 118 0.0 1.6 0.00 0.00 0.00 95 1006.2
20260507051851 10 104 1.6 1.6 0.00 0.00 0.00 95 1006.4
20260507051349 10 109 3.2 3.2 0.00 0.00 0.00 96 1006.5
20260507050845 10 120 1.6 3.2 0.00 0.00 0.00 97 1006.3
20260507050342 10 93 1.6 3.2 0.00 0.00 0.00 97 1006.2
20260507045839 10 114 0.0 0.0 0.00 0.00 0.00 97 1006.2
20260507045335 10 104 0.0 1.6 0.00 0.00 0.00 98 1005.8
20260507044833 10 93 0.0 1.6 0.00 0.00 0.00 98 1005.9
20260507044329 10 100 1.6 1.6 0.00 0.00 0.00 98 1006.0
20260507043825 10 110 1.6 3.2 0.00 0.00 0.00 98 1006.1
20260507043322 10 107 0.0 0.0 0.00 0.00 0.00 98 1006.1
20260507042818 10 81 6.4 8.0 0.00 0.00 0.00 98 1006.1
20260507042314 10 159 1.6 3.2 0.00 0.00 0.00 98 1006.1
20260507041811 10 104 1.6 1.6 0.00 0.00 0.00 98 1006.6
20260507041308 10 65 3.2 4.8 0.00 0.00 0.00 98 1006.3
20260507040805 11 106 1.6 3.2 0.00 0.00 0.00 98 1006.4
20260507040301 11 89 1.6 1.6 0.00 0.00 0.00 98 1006.3
20260507035757 11 102 1.6 1.6 0.00 0.61 0.61 98 1006.2
20260507035252 11 181 3.2 3.2 0.00 0.61 0.61 98 1005.9
20260507034750 11 352 6.4 9.7 0.00 0.61 0.61 98 1005.8
20260507034247 12 80 4.8 4.8 0.00 0.61 0.61 98 1005.6
20260507033745 12 98 4.8 4.8 0.00 0.61 0.61 98 1005.5
20260507033242 12 73 4.8 4.8 0.13 0.61 0.61 98 1005.4
20260507032739 12 114 3.2 4.8 0.13 0.61 0.61 98 1005.3
20260507032235 13 107 3.2 4.8 0.00 0.58 0.58 98 1005.3
20260507031732 13 84 4.8 4.8 0.00 0.58 0.58 98 1005.1
20260507031229 13 63 4.8 4.8 0.00 0.58 0.58 98 1005.1
20260507030726 13 294 3.2 3.2 0.00 0.58 0.58 98 1005.5
20260507030223 14 112 4.8 4.8 0.00 0.58 0.58 98 1005.2
20260507025720 14 290 4.8 8.0 0.00 0.58 0.58 98 1005.1
20260507025217 14 346 3.2 3.2 0.00 0.58 0.58 98 1004.8
20260507024716 14 7 4.8 4.8 0.00 0.58 0.58 98 1004.9
20260507024212 14 127 1.6 1.6 0.00 0.58 0.58 98 1005.1
20260507023708 14 124 4.8 4.8 0.00 0.58 0.58 98 1004.9
20260507023205 14 148 3.2 4.8 0.00 0.58 0.58 98 1005.0
20260507022702 14 271 4.8 4.8 0.00 0.58 0.58 98 1005.1
20260507022158 14 110 0.0 1.6 0.00 0.58 0.58 98 1004.7
20260507021654 14 143 1.6 3.2 0.00 0.58 0.58 98 1004.5
20260507021149 14 113 1.6 3.2 0.00 0.58 0.58 98 1004.8
20260507020649 14 166 3.2 3.2 0.00 0.58 0.58 98 1004.7
20260507020144 14 195 4.8 4.8 0.00 0.58 0.58 98 1004.7
20260507015643 14 204 1.6 1.6 0.00 0.58 0.58 98 1004.9
20260507015140 14 190 4.8 4.8 0.00 0.58 0.58 98 1004.8
20260507014636 14 173 1.6 4.8 0.00 0.58 0.58 98 1004.8
20260507014132 14 159 3.2 3.2 0.00 0.58 0.58 98 1004.8
20260507013629 14 145 3.2 3.2 0.00 0.58 0.58 98 1004.8
20260507013126 14 175 3.2 4.8 0.00 0.58 0.58 98 1004.7
20260507012624 14 192 3.2 3.2 0.00 0.58 0.58 98 1004.9
20260507012119 14 192 0.0 1.6 0.00 0.58 0.58 98 1005.0
20260507011617 14 192 3.2 4.8 0.00 0.58 0.58 98 1004.8
20260507011113 14 175 6.4 11.3 0.00 0.58 0.58 98 1005.1
20260507010608 14 207 4.8 8.0 0.00 0.58 0.58 98 1005.0
20260507010104 14 241 6.4 9.7 0.00 0.58 0.58 98 1005.0
20260507005602 14 153 3.2 4.8 0.00 0.58 0.58 98 1004.9
20260507005058 14 233 4.8 11.3 0.00 0.58 0.58 98 1005.1
20260507004555 14 164 4.8 8.0 0.00 0.58 0.58 98 1004.7
20260507004052 14 154 8.0 11.3 0.00 0.58 0.58 98 1004.8
20260507003548 14 127 3.2 4.8 0.00 0.58 0.58 98 1004.6
20260507003043 14 171 8.0 11.3 0.00 0.58 0.58 98 1004.7
20260507002540 14 202 8.0 11.3 0.00 0.58 0.58 98 1005.1
20260507002036 14 150 4.8 4.8 0.00 0.58 0.58 98 1005.0
20260507001533 14 175 3.2 4.8 0.18 0.58 0.58 98 1004.8
20260507001031 14 144 3.2 3.2 0.18 0.58 0.58 98 1004.7
20260507000526 14 114 4.8 8.0 0.00 0.56 0.56 98 1004.7
20260507000023 14 132 1.6 3.2 0.00 0.56 0.56 98 1004.6
20260506235520 14 132 1.6 1.6 0.00 0.56 0.56 98 1004.5
20260506235015 14 190 8.0 11.3 0.00 0.56 0.56 98 1004.7
20260506234513 14 221 3.2 4.8 0.00 0.56 0.56 98 1004.6
20260506234010 14 110 4.8 8.0 0.00 0.56 0.56 98 1004.6
20260506233506 14 161 6.4 8.0 0.00 0.56 0.56 98 1004.4
20260506233004 14 249 4.8 8.0 0.00 0.56 0.56 98 1004.8
20260506232459 14 150 1.6 1.6 0.30 0.56 0.56 98 1004.7
20260506231955 14 130 4.8 8.0 0.43 0.56 0.56 98 1004.5
20260506231453 14 258 4.8 8.0 0.13 0.51 0.51 98 1004.7
20260506230950 14 236 8.0 9.7 0.18 0.48 0.48 98 1004.7
20260506230446 14 177 3.2 3.2 0.30 0.48 0.48 98 1004.7
20260506225943 14 146 3.2 4.8 0.30 0.46 0.46 98 1004.9
20260506225441 14 285 6.4 11.3 0.30 0.43 0.43 98 1004.8
20260506224937 14 238 3.2 8.0 0.13 0.41 0.41 98 1005.0
20260506224434 14 163 1.6 3.2 0.00 0.38 0.38 98 1004.8
20260506223931 14 153 1.6 1.6 0.00 0.38 0.38 98 1004.9
20260506223426 14 195 8.0 9.7 0.00 0.38 0.38 98 1004.9
20260506222924 14 123 3.2 3.2 0.18 0.38 0.38 98 1004.8
20260506222420 14 132 4.8 4.8 0.18 0.38 0.38 98 1005.0
20260506221917 14 190 8.0 11.3 0.00 0.36 0.36 98 1005.0
20260506221414 14 180 8.0 9.7 0.00 0.36 0.36 98 1004.9
20260506220912 14 221 4.8 4.8 0.13 0.36 0.36 98 1005.0
20260506220407 14 124 1.6 3.2 0.30 0.36 0.36 98 1005.1
20260506215904 14 196 8.0 9.7 0.36 0.33 0.33 98 1005.3
20260506215400 14 155 4.8 8.0 0.18 0.30 0.30 98 1005.2
20260506214856 14 149 3.2 3.2 0.00 0.28 0.28 98 1005.1
20260506214353 14 178 6.4 9.7 0.00 0.28 0.28 98 1005.2
20260506213851 14 146 9.7 12.9 0.00 0.28 0.28 98 1005.2
20260506213348 14 234 9.7 14.5 0.00 0.28 0.28 98 1005.2
20260506212845 15 199 1.6 3.2 0.00 0.28 0.28 98 1005.2
20260506212341 15 173 3.2 3.2 0.13 0.28 0.28 98 1005.5
20260506211836 15 161 3.2 4.8 0.13 0.28 0.28 98 1005.5
20260506211332 15 147 4.8 8.0 0.18 0.25 0.25 98 1005.7
20260506210830 15 161 4.8 4.8 0.18 0.25 0.25 98 1005.6
20260506210327 15 173 4.8 9.7 0.00 0.23 0.23 98 1005.6
20260506205824 15 41 6.4 11.3 0.00 0.23 0.23 98 1005.7
20260506205320 15 167 9.7 14.5 0.13 0.23 0.23 98 1005.6
20260506204817 15 157 1.6 1.6 0.13 0.23 0.23 98 1005.7
20260506204314 15 226 9.7 17.7 0.18 0.20 0.20 97 1005.8
20260506203812 15 228 3.2 3.2 0.18 0.20 0.20 97 1005.7
20260506203309 15 61 4.8 4.8 0.00 0.18 0.18 97 1005.9
20260506202806 15 170 8.0 12.9 0.13 0.18 0.18 96 1005.6
20260506202306 15 250 6.4 8.0 0.30 0.18 0.18 96 1005.7
20260506201759 16 117 1.6 3.2 0.18 0.15 0.15 95 1005.6
20260506201256 16 171 4.8 4.8 0.18 0.15 0.15 95 1005.7
20260506200753 16 153 1.6 1.6 0.00 0.13 0.13 94 1005.7
20260506200249 16 140 6.4 9.7 0.00 0.13 0.13 93 1005.8
20260506195746 16 93 3.2 3.2 0.00 0.13 0.13 93 1005.8
20260506195242 16 129 1.6 3.2 0.00 0.13 0.13 93 1005.7
20260506194740 16 210 3.2 8.0 0.00 0.13 0.13 93 1005.9
20260506194236 16 142 1.6 1.6 0.00 0.13 0.13 93 1005.9
20260506193734 16 197 4.8 4.8 0.00 0.13 0.13 92 1005.8
20260506193230 16 151 6.4 9.7 0.13 0.13 0.13 93 1005.9
20260506192727 16 184 4.8 4.8 0.13 0.13 0.13 92 1005.6
20260506192224 16 152 1.6 3.2 0.18 0.10 0.10 91 1005.6
20260506191720 17 121 3.2 4.8 0.18 0.10 0.10 90 1005.7
20260506191216 17 167 4.8 9.7 0.13 0.08 0.08 91 1005.8
20260506190714 17 118 1.6 1.6 0.13 0.08 0.08 91 1005.8
20260506190210 17 135 1.6 1.6 0.18 0.05 0.05 90 1006.4
20260506185708 17 114 0.0 1.6 0.18 0.05 0.05 88 1006.1
20260506185204 17 120 1.6 1.6 0.00 0.03 0.03 86 1006.0
20260506184702 18 128 1.6 1.6 0.18 0.03 0.03 83 1006.1
20260506184159 18 116 3.2 3.2 0.18 0.03 0.03 79 1006.1
20260506183655 18 131 1.6 3.2 0.00 0.00 0.00 79 1006.0
20260506183151 18 129 1.6 3.2 0.00 0.00 0.00 76 1006.2
20260506182649 19 133 0.0 1.6 0.00 0.00 0.00 74 1006.2
20260506182146 20 196 1.6 3.2 0.00 0.00 0.00 72 1006.3
20260506181644 20 136 1.6 1.6 0.00 0.00 0.00 70 1006.0
20260506181141 20 135 4.8 8.0 0.00 0.00 0.00 69 1006.1
20260506180637 20 176 11.3 20.9 0.00 0.00 0.00 66 1006.1
20260506180134 20 234 6.4 8.0 0.00 0.00 0.00 65 1005.9
20260506175630 21 328 8.0 11.3 0.00 0.00 0.00 64 1006.2
20260506175126 21 239 4.8 4.8 0.00 0.00 0.00 62 1005.9
20260506174626 21 184 8.0 9.7 0.00 0.00 0.00 60 1006.1
20260506174122 21 131 3.2 3.2 0.00 0.00 0.00 61 1006.0
20260506173619 21 111 9.7 12.9 0.00 0.00 0.00 60 1006.1
20260506173116 21 315 6.4 9.7 0.00 0.00 0.00 61 1006.1
20260506172613 22 281 8.0 12.9 0.00 0.00 0.00 61 1006.0
20260506172109 22 21 6.4 9.7 0.00 0.00 0.00 60 1006.3
20260506171607 21 125 3.2 3.2 0.00 0.00 0.00 61 1006.3
20260506171105 21 213 11.3 17.7 0.00 0.00 0.00 61 1006.2
20260506170602 21 115 3.2 8.0 0.00 0.00 0.00 61 1006.2